When you browse on this site, cookies collect data to enhance your experience and personalize the content and advertising you see.
Visit our Privacy Policy to learn more. By continuing to use the site, you agree to this use of cookies and data.
  • In Austria
  • List of Countries
  • For 7 days
  • Water Temperature
  • Satellite Maps
  • Weather Map
  • News
  • Weather Widgets
  • user-avatar
    Login

    Hourly Weather Mykonos

    Today, 10 December, Monday

    Time Temperature Precipitation Wind Pressure Humidity
    00:00 +17°C° 0 mm 6 mps 758 mmHg 65%
    01:00 +17°C° 0 mm 6 mps 758 mmHg 65%
    02:00 +17°C° 0 mm 7 mps 757 mmHg 66%
    03:00 +17°C° 0 mm 7 mps 757 mmHg 66%
    04:00 +17°C° 0 mm 8 mps 757 mmHg 66%
    05:00 +17°C° 0 mm 8 mps 756 mmHg 66%
    06:00 +17°C° 0 mm 9 mps 756 mmHg 68%
    07:00 +17°C° 0 mm 10 mps 755 mmHg 70%
    08:00 +17°C° 0 mm 10 mps 755 mmHg 72%
    09:00 +17°C° 0.3 mm 12 mps 755 mmHg 72%
    10:00 +17°C° 0.3 mm 13 mps 754 mmHg 72%
    11:00 +18°C° 0.3 mm 14 mps 754 mmHg 72%
    12:00 +18°C° 0.8 mm 14 mps 753 mmHg 71%
    13:00 +17°C° 0.8 mm 14 mps 753 mmHg 71%
    14:00 +17°C° 0.8 mm 14 mps 752 mmHg 70%
    15:00 +17°C° 0.6 mm 13 mps 752 mmHg 68%
    16:00 +17°C° 0.6 mm 12 mps 752 mmHg 67%
    17:00 +17°C° 0.6 mm 10 mps 753 mmHg 65%
    18:00 +16°C° 0.5 mm 10 mps 753 mmHg 66%
    19:00 +16°C° 0.5 mm 10 mps 754 mmHg 66%
    20:00 +16°C° 0.5 mm 11 mps 755 mmHg 67%
    21:00 +14°C° 0.3 mm 11 mps 755 mmHg 67%
    22:00 +14°C° 0.3 mm 11 mps 756 mmHg 68%
    23:00 +13°C° 0.3 mm 11 mps 756 mmHg 68%

    Tomorrow, 11 December, Tuesday

    Time Temperature Precipitation Wind Pressure Humidity
    00:00 +13°C° 0.1 mm 10 mps 757 mmHg 67%
    01:00 +13°C° 0.1 mm 9 mps 757 mmHg 66%
    02:00 +13°C° 0.1 mm 9 mps 758 mmHg 64%
    03:00 +13°C° 0 mm 8 mps 758 mmHg 64%
    04:00 +14°C° 0 mm 7 mps 758 mmHg 63%
    05:00 +14°C° 0 mm 6 mps 758 mmHg 63%
    06:00 +14°C° 0 mm 5 mps 758 mmHg 62%
    07:00 +13°C° 0 mm 4 mps 759 mmHg 62%
    08:00 +13°C° 0 mm 3 mps 759 mmHg 61%
    09:00 +13°C° 0.1 mm 3 mps 759 mmHg 61%
    10:00 +13°C° 0.1 mm 3 mps 760 mmHg 61%
    11:00 +14°C° 0.1 mm 2 mps 760 mmHg 61%
    12:00 +14°C° 0.5 mm 2 mps 760 mmHg 63%
    13:00 +14°C° 0.5 mm 2 mps 760 mmHg 64%
    14:00 +13°C° 0.5 mm 3 mps 759 mmHg 66%
    15:00 +13°C° 0.4 mm 3 mps 759 mmHg 69%
    16:00 +12°C° 0.4 mm 4 mps 759 mmHg 71%
    17:00 +12°C° 0.4 mm 4 mps 760 mmHg 73%
    18:00 +12°C° 0.6 mm 5 mps 760 mmHg 74%
    19:00 +11°C° 0.6 mm 6 mps 760 mmHg 74%
    20:00 +11°C° 0.6 mm 8 mps 761 mmHg 75%
    21:00 +11°C° 0.1 mm 7 mps 761 mmHg 71%
    22:00 +12°C° 0.1 mm 7 mps 761 mmHg 67%
    23:00 +13°C° 0.1 mm 6 mps 761 mmHg 63%

    Day after tomorrow, 12 December, Wednesday

    Time Temperature Precipitation Wind Pressure Humidity
    00:00 +13°C° 0.1 mm 6 mps 761 mmHg 62%
    01:00 +13°C° 0.1 mm 6 mps 762 mmHg 60%
    02:00 +13°C° 0.1 mm 6 mps 762 mmHg 59%
    03:00 +13°C° 0.2 mm 5 mps 762 mmHg 59%
    04:00 +13°C° 0.2 mm 5 mps 762 mmHg 60%
    05:00 +12°C° 0.2 mm 5 mps 762 mmHg 60%
    06:00 +12°C° 0.3 mm 5 mps 762 mmHg 61%
    07:00 +12°C° 0.3 mm 5 mps 763 mmHg 61%
    08:00 +12°C° 0.3 mm 4 mps 763 mmHg 61%
    09:00 +12°C° 0.1 mm 5 mps 764 mmHg 60%
    10:00 +13°C° 0.1 mm 5 mps 764 mmHg 58%
    11:00 +13°C° 0.1 mm 5 mps 764 mmHg 57%
    12:00 +13°C° 0 mm 5 mps 764 mmHg 56%
    13:00 +13°C° 0 mm 5 mps 764 mmHg 55%
    14:00 +13°C° 0 mm 5 mps 764 mmHg 54%
    15:00 +13°C° 0 mm 5 mps 764 mmHg 53%
    16:00 +13°C° 0 mm 5 mps 764 mmHg 53%
    17:00 +13°C° 0 mm 5 mps 764 mmHg 52%
    18:00 +13°C° 0 mm 4 mps 764 mmHg 52%
    19:00 +13°C° 0 mm 4 mps 765 mmHg 52%
    20:00 +13°C° 0 mm 3 mps 765 mmHg 51%
    21:00 +13°C° 0 mm 3 mps 765 mmHg 51%
    22:00 +13°C° 0 mm 3 mps 765 mmHg 52%
    23:00 +13°C° 0 mm 3 mps 765 mmHg 52%

    13 December, Thursday

    Time Temperature Precipitation Wind Pressure Humidity
    00:00 +13°C° 0 mm 3 mps 765 mmHg 52%
    01:00 +13°C° 0 mm 3 mps 765 mmHg 53%
    02:00 +13°C° 0 mm 3 mps 765 mmHg 53%
    03:00 +13°C° 0 mm 3 mps 765 mmHg 54%
    04:00 +13°C° 0 mm 3 mps 765 mmHg 54%
    05:00 +14°C° 0 mm 2 mps 765 mmHg 54%
    06:00 +13°C° 0 mm 3 mps 765 mmHg 55%
    07:00 +13°C° 0 mm 3 mps 765 mmHg 56%
    08:00 +13°C° 0 mm 3 mps 766 mmHg 57%
    09:00 +13°C° 0 mm 4 mps 766 mmHg 58%
    10:00 +14°C° 0 mm 4 mps 766 mmHg 59%
    11:00 +14°C° 0 mm 5 mps 766 mmHg 60%
    12:00 +14°C° 0.1 mm 5 mps 765 mmHg 63%
    13:00 +15°C° 0.1 mm 6 mps 764 mmHg 65%
    14:00 +15°C° 0.1 mm 6 mps 764 mmHg 68%
    15:00 +15°C° 0.4 mm 7 mps 764 mmHg 69%
    16:00 +16°C° 0.4 mm 7 mps 763 mmHg 70%
    17:00 +16°C° 0.4 mm 7 mps 763 mmHg 71%
    18:00 +16°C° 0.5 mm 7 mps 763 mmHg 73%
    19:00 +16°C° 0.5 mm 7 mps 763 mmHg 74%
    20:00 +17°C° 0.5 mm 8 mps 763 mmHg 76%
    21:00 +17°C° 0.2 mm 7 mps 763 mmHg 76%
    22:00 +17°C° 0.2 mm 7 mps 763 mmHg 76%
    23:00 +17°C° 0.2 mm 7 mps 763 mmHg 76%

    14 December, Friday

    Time Temperature Precipitation Wind Pressure Humidity
    00:00 +17°C° 0.1 mm 6 mps 763 mmHg 76%
    01:00 +17°C° 0.1 mm 6 mps 763 mmHg 76%
    02:00 +17°C° 0.1 mm 5 mps 763 mmHg 76%
    03:00 +17°C° 0 mm 5 mps 763 mmHg 76%
    04:00 +17°C° 0 mm 5 mps 763 mmHg 76%
    05:00 +18°C° 0 mm 4 mps 763 mmHg 76%
    06:00 +18°C° 0.1 mm 4 mps 763 mmHg 76%
    07:00 +18°C° 0.1 mm 4 mps 763 mmHg 76%
    08:00 +18°C° 0.1 mm 4 mps 763 mmHg 76%
    09:00 +17°C° 0.1 mm 5 mps 763 mmHg 77%
    10:00 +17°C° 0.1 mm 5 mps 763 mmHg 77%
    11:00 +17°C° 0.1 mm 6 mps 763 mmHg 78%
    12:00 +17°C° 0.2 mm 6 mps 763 mmHg 78%
    13:00 +17°C° 0.2 mm 7 mps 762 mmHg 78%
    14:00 +17°C° 0.2 mm 8 mps 762 mmHg 77%
    15:00 +17°C° 0.4 mm 8 mps 761 mmHg 77%
    16:00 +17°C° 0.4 mm 7 mps 761 mmHg 77%
    17:00 +17°C° 0.4 mm 7 mps 761 mmHg 77%
    18:00 +17°C° 0.1 mm 7 mps 761 mmHg 77%
    19:00 +17°C° 0.1 mm 6 mps 761 mmHg 77%
    20:00 +17°C° 0.1 mm 6 mps 761 mmHg 76%
    21:00 +17°C° 0.1 mm 6 mps 761 mmHg 76%
    22:00 +17°C° 0.1 mm 6 mps 760 mmHg 76%
    23:00 +17°C° 0.1 mm 6 mps 760 mmHg 76%

    15 December, Saturday

    Time Temperature Precipitation Wind Pressure Humidity
    00:00 +17°C° 0.1 mm 7 mps 760 mmHg 76%
    01:00 +17°C° 0.1 mm 7 mps 759 mmHg 75%
    02:00 +17°C° 0.1 mm 8 mps 758 mmHg 75%
    03:00 +17°C° 0.1 mm 8 mps 758 mmHg 74%
    04:00 +17°C° 0.1 mm 8 mps 758 mmHg 73%
    05:00 +17°C° 0.1 mm 8 mps 757 mmHg 72%
    06:00 +17°C° 0.8 mm 9 mps 757 mmHg 73%
    07:00 +17°C° 0.8 mm 10 mps 757 mmHg 74%
    08:00 +17°C° 0.8 mm 10 mps 757 mmHg 75%
    09:00 +16°C° 1.1 mm 10 mps 757 mmHg 76%
    10:00 +16°C° 1.1 mm 10 mps 757 mmHg 76%
    11:00 +16°C° 1.1 mm 10 mps 757 mmHg 77%
    12:00 +16°C° 0.7 mm 10 mps 757 mmHg 77%
    13:00 +16°C° 0.7 mm 9 mps 756 mmHg 77%
    14:00 +16°C° 0.7 mm 8 mps 756 mmHg 77%
    15:00 +16°C° 0.5 mm 8 mps 756 mmHg 76%
    16:00 +16°C° 0.5 mm 8 mps 756 mmHg 75%
    17:00 +16°C° 0.5 mm 7 mps 756 mmHg 74%
    18:00 +16°C° 0.3 mm 7 mps 756 mmHg 73%
    19:00 +16°C° 0.3 mm 7 mps 756 mmHg 72%
    20:00 +16°C° 0.3 mm 7 mps 756 mmHg 72%
    21:00 +16°C° 0.3 mm 6 mps 756 mmHg 71%
    22:00 +16°C° 0.3 mm 6 mps 756 mmHg 71%
    23:00 +16°C° 0.3 mm 5 mps 756 mmHg 70%
    Show more